,,PA_Meas_PMT16A,,PR_Meas_QMR101_102,,RH_Meas_QMH101,,SR_Meas_QMS101,,TA_Meas_QMH101,,GenWind,,GenWind,
time,status,PA,status,PR,status,RH,status,SR,status,TA,status,DirAvg,status,SpdAvg,
2011-03-07, 00:00:05,VALID,918.595,VALID,0,VALID,96.9775,VALID,0,VALID,18.7279,VALID,28,VALID,0.0121094,
2011-03-07, 00:01:05,VALID,918.581,VALID,0,VALID,96.8631,VALID,0,VALID,18.6304,VALID,28,VALID,0,
2011-03-07, 00:02:05,VALID,918.586,VALID,0,VALID,96.8098,VALID,0,VALID,18.6304,VALID,28,VALID,0,
2011-03-07, 00:03:05,VALID,918.522,VALID,0,VALID,96.8631,VALID,0,VALID,18.6109,VALID,28,VALID,0,
2011-03-07, 00:04:05,VALID,918.538,VALID,0,VALID,96.9012,VALID,0,VALID,18.6304,VALID,28,VALID,0,
2011-03-07, 00:05:05,VALID,918.542,VALID,0,VALID,96.8403,VALID,0,VALID,18.5705,VALID,28,VALID,0,
2011-03-07, 00:06:05,VALID,918.555,VALID,0,VALID,96.9089,VALID,0,VALID,18.629,VALID,28,VALID,0.021875,
2011-03-07, 00:07:05,VALID,918.561,VALID,0,VALID,96.9317,VALID,0,VALID,18.6694,VALID,28,VALID,0.574609,
2011-03-07, 00:08:05,VALID,918.624,VALID,0,VALID,96.8707,VALID,0,VALID,18.6485,VALID,28,VALID,0.454297,
2011-03-07, 00:09:05,VALID,918.587,VALID,0,VALID,96.8707,VALID,0,VALID,18.6499,VALID,28,VALID,0.564844,
2011-03-07, 00:10:05,VALID,918.584,VALID,0,VALID,96.8403,VALID,0,VALID,18.6109,VALID,28,VALID,0.588281,
2011-03-07, 00:11:05,VALID,918.587,VALID,0,VALID,96.8555,VALID,0,VALID,18.6319,VALID,28,VALID,0.827734,
2011-03-07, 00:12:05,VALID,918.56,VALID,0,VALID,96.9698,VALID,0,VALID,18.7098,VALID,28,VALID,0.748828,
2011-03-07, 00:13:05,VALID,918.55,VALID,0,VALID,96.7945,VALID,0,VALID,18.6304,VALID,28,VALID,0.738281,
2011-03-07, 00:14:05,VALID,918.538,VALID,0,VALID,96.6192,VALID,0,VALID,18.494,VALID,28,VALID,0.584375,
2011-03-07, 00:15:05,VALID,918.542,VALID,0,VALID,96.7564,VALID,0,VALID,18.4745,VALID,28,VALID,0.676172,
2011-03-07, 00:16:05,VALID,918.544,VALID,0,VALID,96.7564,VALID,0,VALID,18.5135,VALID,28,VALID,0.602734,
2011-03-07, 00:17:05,VALID,918.555,VALID,0,VALID,96.6802,VALID,0,VALID,18.3965,VALID,28,VALID,0.578125,
2011-03-07, 00:18:05,VALID,918.539,VALID,0,VALID,96.825,VALID,0,VALID,18.4355,VALID,28,VALID,0.634375,
2011-03-07, 00:19:05,VALID,918.543,VALID,0,VALID,96.9775,VALID,0,VALID,18.4926,VALID,28,VALID,0.483203,
2011-03-07, 00:20:05,VALID,918.532,VALID,0,VALID,96.9698,VALID,0,VALID,18.5525,VALID,28,VALID,0.553516,
2011-03-07, 00:21:05,VALID,918.544,VALID,0,VALID,97.0232,VALID,0,VALID,18.5914,VALID,28,VALID,0.822656,
2011-03-07, 00:22:05,VALID,918.54,VALID,0,VALID,97.0003,VALID,0,VALID,18.6319,VALID,28,VALID,0.779688,
2011-03-07, 00:23:05,VALID,918.529,VALID,0,VALID,96.8784,VALID,0,VALID,18.533,VALID,28,VALID,0.975781,
2011-03-07, 00:24:05,VALID,918.495,VALID,0,VALID,96.9165,VALID,0,VALID,18.533,VALID,28,VALID,0.560938,
2011-03-07, 00:25:05,VALID,918.516,VALID,0,VALID,97.0156,VALID,0,VALID,18.6109,VALID,28,VALID,0.374219,
2011-03-07, 00:26:05,VALID,918.515,VALID,0,VALID,96.9775,VALID,0,VALID,18.6109,VALID,28,VALID,0.452734,
2011-03-07, 00:27:05,VALID,918.5,VALID,0,VALID,96.9012,VALID,0.107441,VALID,18.572,VALID,28,VALID,0.326953,
2011-03-07, 00:28:05,VALID,918.511,VALID,0,VALID,96.9546,VALID,0,VALID,18.572,VALID,28,VALID,0,
2011-03-07, 00:29:05,VALID,918.47,VALID,0,VALID,96.825,VALID,0,VALID,18.5525,VALID,28,VALID,0.3,
2011-03-07, 00:30:05,VALID,918.477,VALID,0,VALID,97.008,VALID,0,VALID,18.5525,VALID,28,VALID,0.562109,
2011-03-07, 00:31:05,VALID,918.462,VALID,0,VALID,97.1147,VALID,0,VALID,18.6499,VALID,28,VALID,0.541406,
2011-03-07, 00:32:05,VALID,918.432,VALID,0,VALID,96.8707,VALID,0,VALID,18.5914,VALID,28,VALID,0.623047,
2011-03-07, 00:33:05,VALID,918.452,VALID,0,VALID,96.8936,VALID,0,VALID,18.6109,VALID,28,VALID,0.39375,
2011-03-07, 00:34:05,VALID,918.432,VALID,0,VALID,97.0918,VALID,0,VALID,18.6694,VALID,28,VALID,0.564062,
2011-03-07, 00:35:05,VALID,918.432,VALID,0,VALID,97.1376,VALID,0,VALID,18.7669,VALID,28,VALID,0.354297,
2011-03-07, 00:36:05,VALID,918.408,VALID,0,VALID,97.0842,VALID,0,VALID,18.7864,VALID,28,VALID,0.0742188,
2011-03-07, 00:37:05,VALID,918.419,VALID,0,VALID,97.1147,VALID,0,VALID,18.8658,VALID,28,VALID,0.233984,
2011-03-07, 00:38:05,VALID,918.416,VALID,0,VALID,97.0918,VALID,0,VALID,18.9048,VALID,28,VALID,0.0972656,
2011-03-07, 00:39:05,VALID,918.393,VALID,0,VALID,97.0842,VALID,0,VALID,18.9243,VALID,28,VALID,0.410547,
2011-03-07, 00:40:05,VALID,918.375,VALID,0,VALID,97.0918,VALID,0,VALID,18.9828,VALID,28,VALID,0.0929687,
2011-03-07, 00:41:05,VALID,918.367,VALID,0,VALID,96.9089,VALID,0,VALID,18.9438,VALID,28,VALID,0,
2011-03-07, 00:42:05,VALID,918.415,VALID,0,VALID,96.9927,VALID,0,VALID,18.9438,VALID,28,VALID,0.286719,
2011-03-07, 00:43:05,VALID,918.429,VALID,0,VALID,96.9241,VALID,0,VALID,18.9438,VALID,28,VALID,0.329688,
2011-03-07, 00:44:05,VALID,918.433,VALID,0,VALID,96.8403,VALID,0,VALID,18.9048,VALID,28,VALID,0.158594,
2011-03-07, 00:45:05,VALID,918.455,VALID,0,VALID,96.9089,VALID,0,VALID,18.9048,VALID,28,VALID,0.191016,
2011-03-07, 00:46:05,VALID,918.439,VALID,0,VALID,96.886,VALID,0,VALID,18.9452,VALID,28,VALID,0,
2011-03-07, 00:47:05,VALID,918.421,VALID,0,VALID,96.8784,VALID,0,VALID,18.9243,VALID,28,VALID,0.308203,
2011-03-07, 00:48:05,VALID,918.433,VALID,0,VALID,96.7411,VALID,0,VALID,18.8853,VALID,28,VALID,0,
2011-03-07, 00:49:05,VALID,918.388,VALID,0,VALID,96.6497,VALID,0,VALID,18.8073,VALID,28,VALID,0.0417969,
2011-03-07, 00:50:05,VALID,918.381,VALID,0,VALID,96.6954,VALID,0,VALID,18.7669,VALID,28,VALID,1.05742,
2011-03-07, 00:51:05,VALID,918.378,VALID,0,VALID,96.7716,VALID,0,VALID,18.8463,VALID,28,VALID,0.954297,
2011-03-07, 00:52:05,VALID,918.378,VALID,0,VALID,96.703,VALID,0,VALID,18.8658,VALID,28,VALID,0.799609,
2011-03-07, 00:53:05,VALID,918.409,VALID,0,VALID,96.6573,VALID,0,VALID,18.8644,VALID,28,VALID,0.419531,
2011-03-07, 00:54:05,VALID,918.41,VALID,0,VALID,96.7564,VALID,0,VALID,18.9034,VALID,28,VALID,0.369922,
2011-03-07, 00:55:05,VALID,918.426,VALID,0,VALID,96.6192,VALID,0,VALID,18.9424,VALID,28,VALID,0,
2011-03-07, 00:56:05,VALID,918.411,VALID,0,VALID,96.5811,VALID,0,VALID,18.9424,VALID,28,VALID,0.649219,
2011-03-07, 00:57:05,VALID,918.43,VALID,0,VALID,96.4667,VALID,0,VALID,18.9034,VALID,28,VALID,0.939453,
2011-03-07, 00:58:05,VALID,918.42,VALID,0,VALID,96.4057,VALID,0.107441,VALID,18.9229,VALID,28,VALID,1.08945,
2011-03-07, 00:59:05,VALID,918.384,VALID,0,VALID,96.2075,VALID,0,VALID,18.8839,VALID,28,VALID,1.04531,
2011-03-07, 01:00:05,VALID,918.429,VALID,0,VALID,96.0855,VALID,0,VALID,18.9034,VALID,28,VALID,0.973437,
2011-03-07, 01:01:05,VALID,918.378,VALID,0,VALID,95.9407,VALID,0,VALID,18.9229,VALID,28,VALID,1.02109,
2011-03-07, 01:02:05,VALID,918.405,VALID,0,VALID,95.834,VALID,0.107441,VALID,18.9424,VALID,28,VALID,0.324219,
2011-03-07, 01:03:05,VALID,918.378,VALID,0,VALID,95.7196,VALID,0,VALID,18.9828,VALID,28,VALID,0.0257812,
2011-03-07, 01:04:05,VALID,918.371,VALID,0,VALID,95.6434,VALID,0.107441,VALID,18.9814,VALID,28,VALID,0,
2011-03-07, 01:05:05,VALID,918.351,VALID,0,VALID,95.6357,VALID,0,VALID,19.0203,VALID,28,VALID,0,
2011-03-07, 01:06:05,VALID,918.342,VALID,0,VALID,95.5824,VALID,0,VALID,19.0608,VALID,28,VALID,0,
2011-03-07, 01:07:05,VALID,918.289,VALID,0,VALID,95.5214,VALID,0,VALID,19.0398,VALID,28,VALID,0,
2011-03-07, 01:08:05,VALID,918.326,VALID,0,VALID,95.4604,VALID,0,VALID,19.0803,VALID,28,VALID,0,
2011-03-07, 01:09:05,VALID,918.309,VALID,0,VALID,95.3766,VALID,0,VALID,19.0998,VALID,28,VALID,0,
2011-03-07, 01:10:05,VALID,918.325,VALID,0,VALID,95.2241,VALID,0,VALID,19.1193,VALID,28,VALID,0,
2011-03-07, 01:11:05,VALID,918.299,VALID,0,VALID,95.1021,VALID,0,VALID,19.1388,VALID,28,VALID,0,
2011-03-07, 01:12:05,VALID,918.296,VALID,0,VALID,94.9573,VALID,0,VALID,19.1583,VALID,28,VALID,0.0839844,
2011-03-07, 01:13:05,VALID,918.296,VALID,0,VALID,94.8124,VALID,0,VALID,19.1778,VALID,28,VALID,0.155469,
2011-03-07, 01:14:05,VALID,918.244,VALID,0,VALID,94.599,VALID,0,VALID,19.1973,VALID,28,VALID,0,
2011-03-07, 01:15:05,VALID,918.262,VALID,0,VALID,94.5532,VALID,0,VALID,19.2558,VALID,28,VALID,0.341797,
2011-03-07, 01:16:05,VALID,918.228,VALID,0,VALID,94.294,VALID,0,VALID,19.2948,VALID,28,VALID,0.450781,
2011-03-07, 01:17:05,VALID,918.229,VALID,0,VALID,93.8366,VALID,0,VALID,19.2948,VALID,28,VALID,0.607422,
2011-03-07, 01:18:05,VALID,918.209,VALID,0,VALID,93.6994,VALID,0,VALID,19.3338,VALID,28,VALID,0.730859,
2011-03-07, 01:19:05,VALID,918.205,VALID,0,VALID,93.829,VALID,0,VALID,19.3533,VALID,28,VALID,0.697266,
2011-03-07, 01:20:05,VALID,918.187,VALID,0,VALID,93.7528,VALID,0,VALID,19.3518,VALID,28,VALID,0.644922,
2011-03-07, 01:21:05,VALID,918.193,VALID,0,VALID,93.5393,VALID,0,VALID,19.3923,VALID,28,VALID,0.764063,
2011-03-07, 01:22:05,VALID,918.199,VALID,0,VALID,93.6232,VALID,0,VALID,19.3923,VALID,28,VALID,0.706641,
2011-03-07, 01:23:05,VALID,918.189,VALID,0,VALID,93.5393,VALID,0,VALID,19.4103,VALID,28,VALID,0.466406,
2011-03-07, 01:24:05,VALID,918.175,VALID,0,VALID,93.5698,VALID,0,VALID,19.4103,VALID,28,VALID,0.441406,
2011-03-07, 01:25:05,VALID,918.206,VALID,0,VALID,93.4707,VALID,0,VALID,19.4493,VALID,28,VALID,0.2875,
2011-03-07, 01:26:05,VALID,918.156,VALID,0,VALID,93.3716,VALID,0,VALID,19.4688,VALID,28,VALID,0,
2011-03-07, 01:27:05,VALID,918.139,VALID,0,VALID,93.3335,VALID,0,VALID,19.4493,VALID,28,VALID,0,
2011-03-07, 01:28:05,VALID,918.123,VALID,0,VALID,93.1505,VALID,0,VALID,19.4493,VALID,28,VALID,0,
2011-03-07, 01:29:05,VALID,918.072,VALID,0,VALID,92.5102,VALID,0,VALID,19.4118,VALID,28,VALID,0.259375,
2011-03-07, 01:30:05,VALID,918.027,VALID,0,VALID,92.4949,VALID,0,VALID,19.3128,VALID,28,VALID,0.722266,
2011-03-07, 01:31:05,VALID,917.991,VALID,0,VALID,93.5469,VALID,0,VALID,19.3128,VALID,28,VALID,0.8625,
2011-03-07, 01:32:05,VALID,917.972,VALID,0,VALID,93.707,VALID,0,VALID,19.2738,VALID,28,VALID,0.934375,
2011-03-07, 01:33:05,VALID,917.939,VALID,0,VALID,94.0806,VALID,0,VALID,19.2738,VALID,28,VALID,0.957812,
2011-03-07, 01:34:05,VALID,917.972,VALID,0,VALID,94.3093,VALID,0,VALID,19.3128,VALID,28,VALID,1.06758,
2011-03-07, 01:35:05,VALID,917.925,VALID,0,VALID,93.829,VALID,0,VALID,19.3323,VALID,28,VALID,0.83125,
2011-03-07, 01:36:05,VALID,917.913,VALID,0,VALID,93.6765,VALID,0,VALID,19.3713,VALID,28,VALID,0.820703,
2011-03-07, 01:37:05,VALID,917.884,VALID,0,VALID,93.707,VALID,0,VALID,19.3893,VALID,28,VALID,0.688672,
2011-03-07, 01:38:05,VALID,917.822,VALID,0,VALID,93.89,VALID,0,VALID,19.4103,VALID,28,VALID,1.11445,
2011-03-07, 01:39:05,VALID,917.774,VALID,0,VALID,93.7147,VALID,0,VALID,19.4298,VALID,28,VALID,1.25508,
2011-03-07, 01:40:05,VALID,917.79,VALID,0,VALID,93.4783,VALID,0,VALID,19.4883,VALID,28,VALID,1.4918,
2011-03-07, 01:41:05,VALID,917.735,VALID,0,VALID,93.0895,VALID,0,VALID,19.5273,VALID,28,VALID,1.12344,
2011-03-07, 01:42:05,VALID,917.768,VALID,0,VALID,92.9981,VALID,0,VALID,19.5273,VALID,28,VALID,1.01328,
2011-03-07, 01:43:05,VALID,917.803,VALID,0,VALID,92.9218,VALID,0,VALID,19.5468,VALID,28,VALID,0.998438,
2011-03-07, 01:44:05,VALID,917.798,VALID,0,VALID,92.7998,VALID,0,VALID,19.5273,VALID,28,VALID,0.763672,
2011-03-07, 01:45:05,VALID,917.772,VALID,0,VALID,92.6016,VALID,0,VALID,19.5288,VALID,28,VALID,0.750391,
2011-03-07, 01:46:05,VALID,917.81,VALID,0,VALID,93.0133,VALID,0,VALID,19.4883,VALID,28,VALID,0.769141,
2011-03-07, 01:47:05,VALID,917.813,VALID,0,VALID,93.2039,VALID,0,VALID,19.4688,VALID,28,VALID,0.371094,
2011-03-07, 01:48:05,VALID,917.839,VALID,0,VALID,93.2115,VALID,0,VALID,19.4688,VALID,28,VALID,0.415234,
2011-03-07, 01:49:05,VALID,917.835,VALID,0,VALID,93.2877,VALID,0,VALID,19.4493,VALID,28,VALID,0.648438,
2011-03-07, 01:50:05,VALID,917.805,VALID,0,VALID,93.4173,VALID,0,VALID,19.4283,VALID,28,VALID,1.08594,
2011-03-07, 01:51:05,VALID,917.81,VALID,0,VALID,93.4859,VALID,0,VALID,19.4493,VALID,28,VALID,1.07656,
2011-03-07, 01:52:05,VALID,917.785,VALID,0,VALID,93.4707,VALID,0,VALID,19.4493,VALID,28,VALID,1.18438,
2011-03-07, 01:53:05,VALID,917.809,VALID,0,VALID,93.1963,VALID,0,VALID,19.4688,VALID,28,VALID,0.741406,
2011-03-07, 01:54:05,VALID,917.782,VALID,0,VALID,93.1658,VALID,0,VALID,19.4688,VALID,28,VALID,0.954687,
2011-03-07, 01:55:05,VALID,917.78,VALID,0,VALID,93.2877,VALID,0,VALID,19.4493,VALID,28,VALID,0.795703,
2011-03-07, 01:56:05,VALID,917.768,VALID,0,VALID,93.2268,VALID,0,VALID,19.4298,VALID,28,VALID,0.528516,
2011-03-07, 01:57:05,VALID,917.765,VALID,0,VALID,93.2954,VALID,0,VALID,19.4298,VALID,28,VALID,0.521484,
2011-03-07, 01:58:05,VALID,917.746,VALID,0,VALID,93.3335,VALID,0.107441,VALID,19.4298,VALID,28,VALID,0.448438,
2011-03-07, 01:59:05,VALID,917.743,VALID,0,VALID,93.364,VALID,0,VALID,19.3908,VALID,28,VALID,0.590234,
2011-03-07, 02:00:05,VALID,917.746,VALID,0,VALID,93.4859,VALID,0,VALID,19.3908,VALID,28,VALID,0.372656,
2011-03-07, 02:01:05,VALID,917.749,VALID,0,VALID,93.5088,VALID,0,VALID,19.3908,VALID,28,VALID,0.264453,
2011-03-07, 02:02:05,VALID,917.683,VALID,0,VALID,93.6384,VALID,0,VALID,19.4103,VALID,28,VALID,0.307813,
2011-03-07, 02:03:05,VALID,917.699,VALID,0,VALID,93.6155,VALID,0,VALID,19.4298,VALID,28,VALID,0.0238281,
2011-03-07, 02:04:05,VALID,917.676,VALID,0,VALID,93.5241,VALID,0,VALID,19.4103,VALID,28,VALID,0.175781,
2011-03-07, 02:05:05,VALID,917.664,VALID,0,VALID,93.5088,VALID,0,VALID,19.4298,VALID,28,VALID,0.146094,
2011-03-07, 02:06:05,VALID,917.63,VALID,0,VALID,93.5546,VALID,0,VALID,19.4508,VALID,28,VALID,0.0796875,
2011-03-07, 02:07:05,VALID,917.638,VALID,0,VALID,93.4936,VALID,0,VALID,19.4103,VALID,28,VALID,0,
2011-03-07, 02:08:05,VALID,917.609,VALID,0,VALID,93.6232,VALID,0,VALID,19.4103,VALID,28,VALID,0.648828,
2011-03-07, 02:09:04,VALID,917.605,VALID,0,VALID,93.059,VALID,0,VALID,19.3713,VALID,28,VALID,1.00625,
2011-03-07, 02:10:04,VALID,917.593,VALID,0,VALID,93.6079,VALID,0.107441,VALID,19.3908,VALID,28,VALID,0.795703,
2011-03-07, 02:11:04,VALID,917.582,VALID,0,VALID,93.6918,VALID,0,VALID,19.4103,VALID,28,VALID,0.959375,
2011-03-07, 02:12:04,VALID,917.546,VALID,0,VALID,93.4402,VALID,0,VALID,19.4103,VALID,28,VALID,0.810156,
2011-03-07, 02:13:04,VALID,917.543,VALID,0,VALID,93.8214,VALID,0,VALID,19.4493,VALID,28,VALID,1.25508,
2011-03-07, 02:14:04,VALID,917.536,VALID,0,VALID,93.7375,VALID,0,VALID,19.4298,VALID,28,VALID,0.700781,
2011-03-07, 02:15:04,VALID,917.518,VALID,0,VALID,93.829,VALID,0,VALID,19.4493,VALID,28,VALID,0.683594,
2011-03-07, 02:16:04,VALID,917.46,VALID,0,VALID,93.6537,VALID,0.107441,VALID,19.4298,VALID,28,VALID,0.600391,
2011-03-07, 02:17:04,VALID,917.465,VALID,0,VALID,93.7147,VALID,0,VALID,19.4298,VALID,28,VALID,0.646094,
2011-03-07, 02:18:04,VALID,917.48,VALID,0,VALID,93.8061,VALID,0,VALID,19.3908,VALID,28,VALID,0.81875,
2011-03-07, 02:19:04,VALID,917.501,VALID,0,VALID,94.0653,VALID,0,VALID,19.3908,VALID,28,VALID,0.934375,
2011-03-07, 02:20:04,VALID,917.537,VALID,0,VALID,93.9586,VALID,0,VALID,19.3908,VALID,28,VALID,0.541406,
2011-03-07, 02:21:04,VALID,917.506,VALID,0,VALID,94.073,VALID,0,VALID,19.3908,VALID,28,VALID,0.417188,
2011-03-07, 02:22:04,VALID,917.534,VALID,0,VALID,94.1416,VALID,0,VALID,19.3713,VALID,28,VALID,0.323828,
2011-03-07, 02:23:04,VALID,917.506,VALID,0,VALID,94.1187,VALID,0,VALID,19.3308,VALID,28,VALID,0.298047,
2011-03-07, 02:24:04,VALID,917.504,VALID,0,VALID,93.8747,VALID,0,VALID,19.3128,VALID,28,VALID,0,
2011-03-07, 02:25:04,VALID,917.522,VALID,0,VALID,93.8443,VALID,0,VALID,19.2738,VALID,28,VALID,0.260938,
2011-03-07, 02:26:04,VALID,917.506,VALID,0,VALID,93.9129,VALID,0,VALID,19.2348,VALID,28,VALID,0.222266,
2011-03-07, 02:27:04,VALID,917.465,VALID,0,VALID,93.8976,VALID,0,VALID,19.1958,VALID,28,VALID,0.398828,
2011-03-07, 02:28:04,VALID,917.454,VALID,0,VALID,93.8976,VALID,0,VALID,19.1568,VALID,28,VALID,0.328906,
2011-03-07, 02:29:04,VALID,917.457,VALID,0,VALID,94.0577,VALID,0,VALID,19.1373,VALID,28,VALID,0.699219,
2011-03-07, 02:30:04,VALID,917.39,VALID,0,VALID,94.2712,VALID,0,VALID,19.1178,VALID,28,VALID,0.791406,
2011-03-07, 02:31:04,VALID,917.383,VALID,0,VALID,94.4541,VALID,0,VALID,19.0983,VALID,28,VALID,0.577344,
2011-03-07, 02:32:04,VALID,917.36,VALID,0,VALID,94.5913,VALID,0,VALID,19.0983,VALID,28,VALID,0.189453,
2011-03-07, 02:33:04,VALID,917.362,VALID,0,VALID,94.6066,VALID,0,VALID,19.0593,VALID,28,VALID,0.342969,
2011-03-07, 02:34:04,VALID,917.364,VALID,0,VALID,94.7514,VALID,0.107441,VALID,19.0593,VALID,28,VALID,0.530859,
2011-03-07, 02:35:04,VALID,917.36,VALID,0,VALID,95.064,VALID,0.107441,VALID,19.1373,VALID,28,VALID,0.466016,
2011-03-07, 02:36:04,VALID,917.318,VALID,0,VALID,95.2622,VALID,0,VALID,19.1763,VALID,28,VALID,0.1625,
2011-03-07, 02:37:04,VALID,917.355,VALID,0,VALID,95.1326,VALID,0,VALID,19.1568,VALID,28,VALID,0.299609,
2011-03-07, 02:38:04,VALID,917.369,VALID,0,VALID,95.064,VALID,0,VALID,19.1178,VALID,28,VALID,0.214062,
2011-03-07, 02:39:04,VALID,917.388,VALID,0,VALID,95.0411,VALID,0,VALID,19.1373,VALID,28,VALID,0.420312,
2011-03-07, 02:40:04,VALID,917.361,VALID,0,VALID,95.0106,VALID,0,VALID,19.0969,VALID,28,VALID,0.294922,
2011-03-07, 02:41:04,VALID,917.359,VALID,0,VALID,95.0335,VALID,0,VALID,19.1373,VALID,28,VALID,0.411719,
2011-03-07, 02:42:04,VALID,917.353,VALID,0,VALID,94.881,VALID,0,VALID,19.0983,VALID,28,VALID,0,
2011-03-07, 02:43:04,VALID,917.295,VALID,0,VALID,94.8505,VALID,0,VALID,19.0579,VALID,28,VALID,0,
2011-03-07, 02:44:04,VALID,917.288,VALID,0,VALID,94.8124,VALID,0,VALID,19.0788,VALID,27,VALID,0,
2011-03-07, 02:45:04,VALID,917.248,VALID,0,VALID,94.3093,VALID,0,VALID,19.0008,VALID,28,VALID,0,
2011-03-07, 02:46:04,VALID,917.237,VALID,0,VALID,94.0348,VALID,0,VALID,18.9424,VALID,28,VALID,0.474609,
2011-03-07, 02:47:04,VALID,917.227,VALID,0,VALID,94.2254,VALID,0,VALID,18.9034,VALID,28,VALID,0.373437,
2011-03-07, 02:48:04,VALID,917.223,VALID,0,VALID,94.7133,VALID,0,VALID,18.9034,VALID,28,VALID,0.0175781,
2011-03-07, 02:49:04,VALID,917.231,VALID,0,VALID,94.7591,VALID,0,VALID,18.8644,VALID,28,VALID,0,
2011-03-07, 02:50:04,VALID,917.195,VALID,0,VALID,94.6905,VALID,0,VALID,18.8059,VALID,28,VALID,0.240625,
2011-03-07, 02:51:04,VALID,917.164,VALID,0,VALID,95.0183,VALID,0.107441,VALID,18.8254,VALID,28,VALID,0.090625,
2011-03-07, 02:52:04,VALID,917.147,VALID,0,VALID,95.3918,VALID,0,VALID,18.8644,VALID,28,VALID,0.242578,
2011-03-07, 02:53:04,VALID,917.177,VALID,0,VALID,95.4604,VALID,0,VALID,18.8644,VALID,28,VALID,0.560938,
2011-03-07, 02:54:04,VALID,917.144,VALID,0,VALID,95.2927,VALID,0,VALID,18.7864,VALID,28,VALID,0,
2011-03-07, 02:55:04,VALID,917.144,VALID,0,VALID,95.2012,VALID,0,VALID,18.7669,VALID,28,VALID,0,
2011-03-07, 02:56:04,VALID,917.163,VALID,0,VALID,95.1479,VALID,0,VALID,18.7669,VALID,28,VALID,0.00117188,
2011-03-07, 02:57:04,VALID,917.154,VALID,0,VALID,95.1631,VALID,0,VALID,18.7669,VALID,28,VALID,0.382813,
2011-03-07, 02:58:04,VALID,917.138,VALID,0,VALID,95.1783,VALID,0,VALID,18.7669,VALID,28,VALID,0,
2011-03-07, 02:59:04,VALID,917.149,VALID,0,VALID,95.2851,VALID,0,VALID,18.8059,VALID,28,VALID,0,
2011-03-07, 03:00:04,VALID,917.166,VALID,0,VALID,95.4071,VALID,0,VALID,18.824,VALID,28,VALID,0.298438,
2011-03-07, 03:01:04,VALID,917.129,VALID,0,VALID,95.4223,VALID,0,VALID,18.8254,VALID,28,VALID,0.0253906,
2011-03-07, 03:02:04,VALID,917.086,VALID,0,VALID,95.4452,VALID,0,VALID,18.8059,VALID,28,VALID,0.113672,
2011-03-07, 03:03:04,VALID,917.089,VALID,0,VALID,95.3766,VALID,0,VALID,18.7864,VALID,28,VALID,0.00585938,
2011-03-07, 03:04:04,VALID,917.079,VALID,0,VALID,95.5748,VALID,0,VALID,18.8658,VALID,28,VALID,0.170703,
2011-03-07, 03:05:04,VALID,917.073,VALID,0,VALID,95.5367,VALID,0,VALID,18.8059,VALID,28,VALID,0.0703125,
2011-03-07, 03:06:04,VALID,917.048,VALID,0,VALID,95.468,VALID,0,VALID,18.7864,VALID,28,VALID,0.362891,
2011-03-07, 03:07:04,VALID,917.039,VALID,0,VALID,95.5214,VALID,0,VALID,18.8073,VALID,28,VALID,0.347266,
2011-03-07, 03:08:04,VALID,917.019,VALID,0,VALID,95.5976,VALID,0,VALID,18.8059,VALID,28,VALID,0.551172,
2011-03-07, 03:09:04,VALID,917.034,VALID,0,VALID,95.6434,VALID,0,VALID,18.8254,VALID,27,VALID,0.539844,
2011-03-07, 03:10:04,VALID,917.035,VALID,0,VALID,95.6129,VALID,0,VALID,18.7864,VALID,28,VALID,0.521094,
2011-03-07, 03:11:04,VALID,917.017,VALID,0,VALID,95.4604,VALID,0,VALID,18.7474,VALID,28,VALID,0.516797,
2011-03-07, 03:12:04,VALID,917.047,VALID,0,VALID,95.4223,VALID,0,VALID,18.7084,VALID,28,VALID,0.648047,
2011-03-07, 03:13:04,VALID,917.019,VALID,0,VALID,95.3461,VALID,0,VALID,18.6694,VALID,28,VALID,0.685547,
2011-03-07, 03:14:04,VALID,917.002,VALID,0,VALID,95.2775,VALID,0,VALID,18.6095,VALID,28,VALID,0.723437,
2011-03-07, 03:15:04,VALID,917.012,VALID,0,VALID,95.4147,VALID,0,VALID,18.6513,VALID,28,VALID,0.691016,
2011-03-07, 03:16:04,VALID,916.988,VALID,0,VALID,95.5443,VALID,0,VALID,18.6513,VALID,28,VALID,0.68125,
2011-03-07, 03:17:04,VALID,916.985,VALID,0,VALID,95.7044,VALID,0,VALID,18.6708,VALID,28,VALID,0.390625,
2011-03-07, 03:18:04,VALID,916.971,VALID,0,VALID,95.7806,VALID,0,VALID,18.7098,VALID,28,VALID,0.338672,
2011-03-07, 03:19:04,VALID,916.999,VALID,0,VALID,95.8492,VALID,0,VALID,18.6889,VALID,28,VALID,0.395312,
2011-03-07, 03:20:04,VALID,917.04,VALID,0,VALID,95.9559,VALID,0,VALID,18.7084,VALID,28,VALID,0.269922,
2011-03-07, 03:21:04,VALID,917.037,VALID,0,VALID,96.1541,VALID,0,VALID,18.8449,VALID,28,VALID,0.237109,
2011-03-07, 03:22:04,VALID,917.017,VALID,0,VALID,96.3295,VALID,0,VALID,18.9619,VALID,28,VALID,0.235156,
2011-03-07, 03:23:04,VALID,916.983,VALID,0,VALID,96.3447,VALID,0,VALID,19.0008,VALID,28,VALID,0,
2011-03-07, 03:24:04,VALID,917.007,VALID,0,VALID,96.1846,VALID,0,VALID,18.9619,VALID,28,VALID,0,
2011-03-07, 03:25:04,VALID,917.021,VALID,0,VALID,96.1694,VALID,0,VALID,19.0023,VALID,28,VALID,0,
2011-03-07, 03:26:04,VALID,916.969,VALID,0,VALID,96.1236,VALID,0,VALID,18.9619,VALID,28,VALID,0.1375,
2011-03-07, 03:27:04,VALID,916.964,VALID,0,VALID,96.1694,VALID,0,VALID,19.0218,VALID,28,VALID,0.328906,
2011-03-07, 03:28:04,VALID,916.94,VALID,0,VALID,96.2685,VALID,0,VALID,19.1193,VALID,28,VALID,0.441797,
2011-03-07, 03:29:04,VALID,916.902,VALID,0,VALID,96.0703,VALID,0,VALID,19.1193,VALID,28,VALID,0.203906,
2011-03-07, 03:30:04,VALID,916.928,VALID,0,VALID,95.7272,VALID,0,VALID,19.0008,VALID,28,VALID,0.273828,
2011-03-07, 03:31:04,VALID,916.929,VALID,0,VALID,95.5976,VALID,0,VALID,19.0008,VALID,28,VALID,0.495703,
2011-03-07, 03:32:04,VALID,916.914,VALID,0,VALID,95.3461,VALID,0,VALID,18.9424,VALID,28,VALID,0.34375,
2011-03-07, 03:33:04,VALID,916.894,VALID,0,VALID,95.2698,VALID,0,VALID,18.9229,VALID,28,VALID,0.434766,
2011-03-07, 03:34:04,VALID,916.896,VALID,0,VALID,95.1021,VALID,0,VALID,18.8644,VALID,28,VALID,0.676172,
2011-03-07, 03:35:04,VALID,916.915,VALID,0,VALID,94.9115,VALID,0,VALID,18.8254,VALID,28,VALID,0.155469,
2011-03-07, 03:36:04,VALID,916.88,VALID,0,VALID,94.4541,VALID,0,VALID,18.7474,VALID,28,VALID,0,
2011-03-07, 03:37:04,VALID,916.859,VALID,0,VALID,94.3703,VALID,0,VALID,18.7084,VALID,28,VALID,0,
2011-03-07, 03:38:04,VALID,916.849,VALID,0,VALID,94.2788,VALID,0,VALID,18.6694,VALID,28,VALID,0.0640625,
2011-03-07, 03:39:04,VALID,916.823,VALID,0,VALID,94.9496,VALID,0,VALID,18.7279,VALID,27,VALID,0,
2011-03-07, 03:40:04,VALID,916.827,VALID,0,VALID,94.7362,VALID,0,VALID,18.6889,VALID,28,VALID,0.379687,
2011-03-07, 03:41:04,VALID,916.808,VALID,0,VALID,95.2775,VALID,0,VALID,18.8254,VALID,28,VALID,0.232812,
2011-03-07, 03:42:04,VALID,916.815,VALID,0,VALID,95.2165,VALID,0,VALID,18.8254,VALID,28,VALID,0.0183594,
2011-03-07, 03:43:04,VALID,916.812,VALID,0,VALID,95.1555,VALID,0,VALID,18.8254,VALID,28,VALID,0.399609,
2011-03-07, 03:44:04,VALID,916.81,VALID,0,VALID,95.2546,VALID,0,VALID,18.8839,VALID,28,VALID,0.435156,
2011-03-07, 03:45:04,VALID,916.823,VALID,0,VALID,95.4452,VALID,0,VALID,18.9619,VALID,28,VALID,0.316016,
2011-03-07, 03:46:04,VALID,916.818,VALID,0,VALID,95.4223,VALID,0,VALID,19.0008,VALID,27,VALID,0,
2011-03-07, 03:47:04,VALID,916.831,VALID,0,VALID,95.1783,VALID,0,VALID,18.9814,VALID,28,VALID,0,
2011-03-07, 03:48:04,VALID,916.837,VALID,0,VALID,94.8887,VALID,0,VALID,18.9229,VALID,28,VALID,0,